Regional Weather Roundup
Issued by NWS

Home | Current Version | Previous Version | Text Only | Print | Product List | Glossary Off
Versions: 1 2 3 4 5 6 7 8 9 10 11 12 13 14 15 16 17 18 19 20 21 22 23 24 25 26 27 28 29 30 31 32 33 34 35 36 37 38 39 40 41 42 43 44 45 46 47 48 49 50

000
ASUS43 KOAX 241610
RWRNE

WEATHER ROUNDUP FOR NEBRASKA
NATIONAL WEATHER SERVICE OMAHA NE
1100 AM CDT MON JUL 24 2017

NOTES: SATELLITE DATA IS BEING USED TO AUGMENT CLOUD COVER ABOVE
       12000 FEET.
       "FAIR" INDICATES FEW OR NO CLOUDS BELOW 12,000 FEET WITH NO
       SIGNIFICANT WEATHER AND/OR OBSTRUCTIONS TO VISIBILITY.


NEZ001>004-019>022-054>056-241700-
NEBRASKA PANHANDLE

CITY           SKY/WX    TMP DP  RH WIND       PRES   REMARKS
SCOTTSBLUFF    SUNNY     86  58  38 S6        29.96F
ALLIANCE       SUNNY     88  58  36 SW17G25   29.97F
CHADRON        SUNNY     90  56  31 SW13      29.87F
GORDON         FAIR      84  63  48 SW17G25   29.92F
KIMBALL        SUNNY     85  56  36 SW13      30.06S
SIDNEY         SUNNY     85  60  42 S16       30.04F
$$

NEZ057>060-069>072-079>082-241700-
SOUTHWEST NEBRASKA

CITY           SKY/WX    TMP DP  RH WIND       PRES   REMARKS
NORTH PLATTE   SUNNY     84  66  54 SW7       29.99F
IMPERIAL       SUNNY     88  62  41 SW15G21   30.02F
LEXINGTON      SUNNY     80  68  67 SE10      30.01F
MCCOOK         SUNNY     86  66  51 VRB5      30.00F
OGALLALA       SUNNY     89  63  41 S15G21    29.99F
$$

NEZ005>010-023>029-035>040-094-241700-
NORTH CENTRAL NEBRASKA

CITY           SKY/WX    TMP DP  RH WIND       PRES   REMARKS
VALENTINE      SUNNY     86  60  41 S15       29.92F
AINSWORTH      SUNNY     83  63  49 S17G23    29.95F
BROKEN BOW     SUNNY     82  65  56 S13       30.00F
O`NEILL        SUNNY     79  64  60 S15       30.00F
ORD            SUNNY     81  62  52 SE14      29.99F
THEDFORD       SUNNY     85  64  48 SW13G20   29.98F
$$

NEZ041-046>049-061>064-073>077-083>087-241700-
SOUTH CENTRAL NEBRASKA

CITY           SKY/WX    TMP DP  RH WIND       PRES   REMARKS
GRAND ISLAND   SUNNY     79  66  64 SE12      30.02F
AURORA         SUNNY     78  67  69 SE9       30.03S
HASTINGS       SUNNY     79  65  62 SE14      30.03F
HEBRON         SUNNY     83  65  54 SE7       30.03S
HOLDREGE       SUNNY     79  66  65 SE9       30.02F
KEARNEY        SUNNY     80  68  66 SE12      30.02F
YORK           SUNNY     77  66  69 S9        30.03S
$$

NEZ011>018-030>034-042>045-241700-
NORTHEAST NEBRASKA

CITY           SKY/WX    TMP DP  RH WIND       PRES   REMARKS
NORFOLK        SUNNY     78  61  55 S13       30.01F
ALBION         SUNNY     78  65  65 SE10      30.02F
BLAIR          SUNNY     76  64  65 SE5       30.04S
COLUMBUS       SUNNY     76  64  66 SE9       30.03F
FREMONT        SUNNY     77  62  60 S8        30.04S
TEKAMAH        MOSUNNY   76  63  64 VRB7      30.02F
WAYNE          SUNNY     76  64  67 SE10      30.03S
$$

NEZ050>053-065>068-078-088>093-241700-
SOUTHEAST NEBRASKA

CITY           SKY/WX    TMP DP  RH WIND       PRES   REMARKS
LINCOLN        SUNNY     79  64  60 SE8       30.03F
OMAHA EPPLEY   MOSUNNY   77  61  57 SE6       30.03F
BEATRICE       SUNNY     81  65  59 E8        30.02F
FALLS CITY     SUNNY     78  66  66 SE6       30.02F
NEBRASKA CITY  SUNNY     76  66  73 SE7       30.04F
PLATTSMOUTH    SUNNY     76  63  62 SE5       30.04F
$$

NEZ044-045-051>053-067-241700-
OMAHA AREA

CITY           SKY/WX    TMP DP  RH WIND       PRES   REMARKS
OMAHA EPPLEY   MOSUNNY   77  61  57 SE6       30.03F
BLAIR          SUNNY     76  64  65 SE5       30.04S
FREMONT        SUNNY     77  62  60 S8        30.04S
MILLARD        SUNNY     79  64  59 E6        30.03S
OFFUTT AFB     SUNNY     77  62  58 SE7       30.03S
PLATTSMOUTH    SUNNY     76  63  62 SE5       30.04F
WAHOO          FAIR      77  62  61 SE10      30.04S
$$




USA.gov is the U.S. government's official web portal to all federal, state and local government web resources and services.